Location: Blangy-Tronville
(49.8790°N, 2.4226°E)
Time: 21:42:00
(UTC+00:00)

ATLAS 2AS CENTAUR R/B - Pass Details

Date: 18 November 2025
Orbit: 1047 x 1164 km, 63.7° (Epoch: 05 December)

Event Time Altitude Azimuth Distance (km) Brightness Sun altitude
Rises 19:20:50 0° 317° (NW) 3,848 6.3 -31.6°
Reaches altitude 10° 19:23:29 10° 316° (NW) 2,881 5.5 -32.0°
Enters shadow 19:29:41 74° 288° (WNW) 1,090 2.7 -33.0°
